| time (UTC) | temp F | wind direction | speed knots | gust knots | rain 1hr in | rain 24hr in | rain mn in | humidity % | barometer mb |
| 20260507052515 | 60 | 294 | 0.0 | 0.0 | 0.00 | 0.00 | 0.00 | 33 | 1019.8 |
| 20260507052011 | 61 | 278 | 0.9 | 0.9 | 0.00 | 0.00 | 0.00 | 34 | 1019.7 |
| 20260507051509 | 61 | 262 | 0.0 | 0.0 | 0.00 | 0.00 | 0.00 | 32 | 1019.4 |
| 20260507051006 | 62 | 286 | 0.0 | 0.0 | 0.00 | 0.00 | 0.00 | 32 | 1019.4 |
| 20260507050502 | 62 | 90 | 0.0 | 2.6 | 0.00 | 0.00 | 0.00 | 33 | 1019.7 |
| 20260507045959 | 62 | 352 | 0.0 | 0.0 | 0.00 | 0.00 | 0.00 | 33 | 1019.6 |
| 20260507045455 | 61 | 331 | 0.9 | 0.9 | 0.00 | 0.00 | 0.00 | 33 | 1019.5 |
| 20260507044953 | 62 | 75 | 0.0 | 0.9 | 0.00 | 0.00 | 0.00 | 33 | 1019.7 |
| 20260507044450 | 62 | 287 | 0.0 | 0.0 | 0.00 | 0.00 | 0.00 | 33 | 1019.6 |
| 20260507043946 | 62 | 352 | 0.0 | 1.7 | 0.00 | 0.00 | 0.00 | 33 | 1019.4 |
| 20260507043442 | 62 | 303 | 0.0 | 1.7 | 0.00 | 0.00 | 0.00 | 32 | 1019.3 |
| 20260507042938 | 63 | 345 | 0.0 | 0.0 | 0.00 | 0.00 | 0.00 | 31 | 1019.3 |
| 20260507042436 | 63 | 345 | 0.0 | 0.0 | 0.00 | 0.00 | 0.00 | 31 | 1019.2 |
| 20260507041931 | 64 | 345 | 0.0 | 0.9 | 0.00 | 0.00 | 0.00 | 31 | 1019.2 |
| 20260507041428 | 63 | 261 | 0.0 | 0.0 | 0.00 | 0.00 | 0.00 | 31 | 1019.4 |
| 20260507040926 | 64 | 261 | 0.0 | 0.0 | 0.00 | 0.00 | 0.00 | 30 | 1019.2 |
| 20260507040421 | 64 | 262 | 0.0 | 0.9 | 0.00 | 0.00 | 0.00 | 30 | 1019.2 |
| 20260507035917 | 65 | 270 | 0.0 | 0.0 | 0.00 | 0.00 | 0.00 | 29 | 1018.8 |
| 20260507035414 | 65 | 277 | 0.0 | 0.9 | 0.00 | 0.00 | 0.00 | 29 | 1019.1 |
| 20260507034911 | 66 | 261 | 0.0 | 0.0 | 0.00 | 0.00 | 0.00 | 29 | 1019.0 |
| 20260507034407 | 66 | 279 | 0.0 | 0.9 | 0.00 | 0.00 | 0.00 | 29 | 1019.1 |
| 20260507033905 | 66 | 270 | 0.0 | 0.0 | 0.00 | 0.00 | 0.00 | 28 | 1018.7 |
| 20260507033403 | 67 | 0 | 0.0 | 0.0 | 0.00 | 0.00 | 0.00 | 27 | 1018.8 |
| 20260507032900 | 68 | 0 | 0.0 | 0.0 | 0.00 | 0.00 | 0.00 | 26 | 1018.6 |
| 20260507032357 | 68 | 0 | 0.0 | 0.9 | 0.00 | 0.00 | 0.00 | 26 | 1018.7 |
| 20260507031853 | 69 | 254 | 0.0 | 0.0 | 0.00 | 0.00 | 0.00 | 25 | 1018.4 |
| 20260507031350 | 70 | 254 | 0.0 | 0.9 | 0.00 | 0.00 | 0.00 | 25 | 1018.6 |
| 20260507030846 | 71 | 270 | 0.0 | 0.9 | 0.00 | 0.00 | 0.00 | 25 | 1018.7 |
| 20260507030344 | 72 | 261 | 0.0 | 0.9 | 0.00 | 0.00 | 0.00 | 24 | 1018.4 |
| 20260507025840 | 72 | 279 | 0.0 | 0.0 | 0.00 | 0.00 | 0.00 | 24 | 1018.6 |
| 20260507025338 | 73 | 292 | 1.7 | 1.7 | 0.00 | 0.00 | 0.00 | 24 | 1018.5 |
| 20260507024836 | 73 | 270 | 0.0 | 0.9 | 0.00 | 0.00 | 0.00 | 23 | 1018.5 |
| 20260507024333 | 74 | 283 | 0.0 | 2.6 | 0.00 | 0.00 | 0.00 | 23 | 1018.2 |
| 20260507023828 | 74 | 294 | 0.9 | 2.6 | 0.00 | 0.00 | 0.00 | 23 | 1018.2 |
| 20260507023325 | 74 | 280 | 0.0 | 3.5 | 0.00 | 0.00 | 0.00 | 23 | 1018.1 |
| 20260507022822 | 75 | 0 | 0.0 | 3.5 | 0.00 | 0.00 | 0.00 | 23 | 1018.2 |
| 20260507022318 | 75 | 55 | 0.0 | 4.3 | 0.00 | 0.00 | 0.00 | 23 | 1018.1 |
| 20260507021809 | 75 | 10 | 0.0 | 5.2 | 0.00 | 0.00 | 0.00 | 22 | 1018.3 |
| 20260507021305 | 76 | 38 | 1.7 | 2.6 | 0.00 | 0.00 | 0.00 | 22 | 1018.0 |
| 20260507020803 | 76 | 35 | 0.9 | 4.3 | 0.00 | 0.00 | 0.00 | 22 | 1017.6 |
| 20260507020259 | 76 | 51 | 4.3 | 5.2 | 0.00 | 0.00 | 0.00 | 21 | 1018.1 |
| 20260507015757 | 77 | 96 | 1.7 | 3.5 | 0.00 | 0.00 | 0.00 | 21 | 1017.8 |
| 20260507015254 | 77 | 61 | 0.0 | 2.6 | 0.00 | 0.00 | 0.00 | 21 | 1017.6 |
| 20260507014751 | 78 | 48 | 1.7 | 3.5 | 0.00 | 0.00 | 0.00 | 20 | 1018.0 |
| 20260507014247 | 80 | 350 | 0.0 | 2.6 | 0.00 | 0.00 | 0.00 | 19 | 1018.0 |
| 20260507013744 | 81 | 270 | 2.6 | 2.6 | 0.00 | 0.00 | 0.00 | 18 | 1017.8 |
| 20260507013241 | 82 | 266 | 2.6 | 2.6 | 0.00 | 0.00 | 0.00 | 17 | 1017.6 |
| 20260507012738 | 82 | 32 | 1.7 | 2.6 | 0.00 | 0.00 | 0.00 | 18 | 1017.7 |
| 20260507012233 | 81 | 59 | 1.7 | 3.5 | 0.00 | 0.00 | 0.00 | 18 | 1017.8 |
| 20260507011731 | 80 | 15 | 1.7 | 3.5 | 0.00 | 0.00 | 0.00 | 18 | 1017.7 |
| 20260507011228 | 79 | 68 | 3.5 | 3.5 | 0.00 | 0.00 | 0.00 | 19 | 1017.7 |
| 20260507010722 | 80 | 348 | 0.9 | 4.3 | 0.00 | 0.00 | 0.00 | 19 | 1017.7 |
| 20260507010218 | 80 | 6 | 3.5 | 6.1 | 0.00 | 0.00 | 0.00 | 18 | 1017.7 |
| 20260507005716 | 80 | 311 | 1.7 | 5.2 | 0.00 | 0.00 | 0.00 | 18 | 1017.6 |
| 20260507005212 | 81 | 0 | 0.0 | 3.5 | 0.00 | 0.00 | 0.00 | 17 | 1017.7 |
| 20260507004708 | 81 | 29 | 0.0 | 2.6 | 0.00 | 0.00 | 0.00 | 18 | 1017.6 |
| 20260507004206 | 81 | 85 | 0.0 | 2.6 | 0.00 | 0.00 | 0.00 | 18 | 1017.5 |
| 20260507003702 | 82 | 74 | 0.9 | 3.5 | 0.00 | 0.00 | 0.00 | 17 | 1017.6 |
| 20260507003157 | 82 | 270 | 0.0 | 1.7 | 0.00 | 0.00 | 0.00 | 18 | 1017.7 |
| 20260507002654 | 81 | 270 | 3.5 | 3.5 | 0.00 | 0.00 | 0.00 | 19 | 1017.6 |
| 20260507002150 | 81 | 270 | 1.7 | 7.0 | 0.00 | 0.00 | 0.00 | 19 | 1017.6 |
| 20260507001647 | 81 | 255 | 2.6 | 5.2 | 0.00 | 0.00 | 0.00 | 20 | 1017.8 |
| 20260507001144 | 80 | 274 | 1.7 | 4.3 | 0.00 | 0.00 | 0.00 | 21 | 1017.4 |
| 20260507000641 | 80 | 253 | 5.2 | 7.8 | 0.00 | 0.00 | 0.00 | 20 | 1017.5 |
| 20260507000136 | 80 | 281 | 5.2 | 7.8 | 0.00 | 0.00 | 0.00 | 19 | 1017.4 |
| 20260506235634 | 81 | 253 | 5.2 | 8.7 | 0.00 | 0.00 | 0.00 | 20 | 1017.2 |
| 20260506235134 | 81 | 305 | 6.1 | 10.4 | 0.00 | 0.00 | 0.00 | 20 | 1017.6 |
| 20260506234631 | 82 | 248 | 3.5 | 6.1 | 0.00 | 0.00 | 0.00 | 20 | 1017.4 |
| 20260506234128 | 82 | 258 | 2.6 | 7.8 | 0.00 | 0.00 | 0.00 | 20 | 1017.4 |
| 20260506233625 | 82 | 233 | 3.5 | 5.2 | 0.00 | 0.00 | 0.00 | 20 | 1017.5 |
| 20260506233122 | 81 | 300 | 0.9 | 4.3 | 0.00 | 0.00 | 0.00 | 20 | 1017.5 |
| 20260506232618 | 81 | 215 | 2.6 | 6.1 | 0.00 | 0.00 | 0.00 | 21 | 1017.7 |
| 20260506232114 | 81 | 285 | 2.6 | 5.2 | 0.00 | 0.00 | 0.00 | 20 | 1017.7 |
| 20260506231611 | 82 | 258 | 1.7 | 6.1 | 0.00 | 0.00 | 0.00 | 19 | 1017.8 |
| 20260506231109 | 82 | 282 | 1.7 | 5.2 | 0.00 | 0.00 | 0.00 | 20 | 1017.7 |
| 20260506230606 | 81 | 258 | 5.2 | 7.8 | 0.00 | 0.00 | 0.00 | 21 | 1017.8 |
| 20260506230103 | 81 | 307 | 5.2 | 5.2 | 0.00 | 0.00 | 0.00 | 21 | 1017.7 |
| 20260506225559 | 82 | 242 | 5.2 | 5.2 | 0.00 | 0.00 | 0.00 | 21 | 1017.8 |
| 20260506225056 | 81 | 235 | 4.3 | 8.7 | 0.00 | 0.00 | 0.00 | 21 | 1017.8 |
| 20260506224553 | 82 | 259 | 5.2 | 7.8 | 0.00 | 0.00 | 0.00 | 21 | 1018.0 |
| 20260506224049 | 81 | 280 | 3.5 | 7.8 | 0.00 | 0.00 | 0.00 | 21 | 1018.0 |
| 20260506223545 | 81 | 249 | 6.1 | 8.7 | 0.00 | 0.00 | 0.00 | 21 | 1018.0 |
| 20260506223042 | 81 | 213 | 2.6 | 4.3 | 0.00 | 0.00 | 0.00 | 22 | 1018.0 |
| 20260506222539 | 82 | 260 | 1.7 | 5.2 | 0.00 | 0.00 | 0.00 | 21 | 1018.2 |
| 20260506222035 | 82 | 221 | 1.7 | 6.1 | 0.00 | 0.00 | 0.00 | 21 | 1018.1 |
| 20260506221533 | 82 | 250 | 5.2 | 10.4 | 0.00 | 0.00 | 0.00 | 21 | 1018.3 |
| 20260506221031 | 82 | 244 | 6.1 | 11.3 | 0.00 | 0.00 | 0.00 | 21 | 1018.4 |
| 20260506220526 | 82 | 267 | 3.5 | 9.6 | 0.00 | 0.00 | 0.00 | 21 | 1018.5 |
| 20260506220022 | 82 | 246 | 2.6 | 12.2 | 0.00 | 0.00 | 0.00 | 20 | 1018.6 |
| 20260506215519 | 82 | 167 | 2.6 | 8.7 | 0.00 | 0.00 | 0.00 | 21 | 1018.7 |
| 20260506215015 | 82 | 283 | 4.3 | 6.1 | 0.00 | 0.00 | 0.00 | 21 | 1018.6 |
| 20260506214512 | 80 | 248 | 6.1 | 6.1 | 0.00 | 0.00 | 0.00 | 22 | 1018.7 |
| 20260506214009 | 80 | 101 | 1.7 | 7.0 | 0.00 | 0.00 | 0.00 | 22 | 1018.6 |
| 20260506213507 | 79 | 124 | 3.5 | 7.8 | 0.00 | 0.00 | 0.00 | 23 | 1018.8 |
| 20260506213003 | 80 | 78 | 5.2 | 9.6 | 0.00 | 0.00 | 0.00 | 22 | 1018.7 |
| 20260506212459 | 80 | 180 | 4.3 | 9.6 | 0.00 | 0.00 | 0.00 | 22 | 1019.0 |
| 20260506211949 | 80 | 129 | 7.8 | 10.4 | 0.00 | 0.00 | 0.00 | 22 | 1019.0 |
| 20260506211445 | 80 | 168 | 1.7 | 7.0 | 0.00 | 0.00 | 0.00 | 23 | 1019.3 |
| 20260506210943 | 80 | 139 | 5.2 | 7.8 | 0.00 | 0.00 | 0.00 | 22 | 1019.1 |
| 20260506210439 | 80 | 290 | 0.0 | 13.0 | 0.00 | 0.00 | 0.00 | 22 | 1019.1 |
| 20260506205936 | 80 | 105 | 0.0 | 6.1 | 0.00 | 0.00 | 0.00 | 23 | 1019.1 |
| 20260506205432 | 79 | 239 | 2.6 | 5.2 | 0.00 | 0.00 | 0.00 | 22 | 1019.1 |
| 20260506204928 | 78 | 288 | 4.3 | 8.7 | 0.00 | 0.00 | 0.00 | 22 | 1019.2 |
| 20260506204427 | 78 | 180 | 0.9 | 7.0 | 0.00 | 0.00 | 0.00 | 23 | 1019.4 |
| 20260506203924 | 77 | 26 | 2.6 | 7.8 | 0.00 | 0.00 | 0.00 | 24 | 1019.4 |
| 20260506203421 | 77 | 54 | 5.2 | 7.8 | 0.00 | 0.00 | 0.00 | 24 | 1019.5 |
| 20260506202918 | 77 | 26 | 7.8 | 8.7 | 0.00 | 0.00 | 0.00 | 24 | 1019.3 |
| 20260506202415 | 78 | 71 | 4.3 | 8.7 | 0.00 | 0.00 | 0.00 | 23 | 1019.2 |
| 20260506201911 | 78 | 114 | 7.8 | 11.3 | 0.00 | 0.00 | 0.00 | 24 | 1019.1 |
| 20260506201409 | 79 | 71 | 3.5 | 6.1 | 0.00 | 0.00 | 0.00 | 23 | 1019.3 |
| 20260506200905 | 78 | 270 | 0.9 | 1.7 | 0.00 | 0.00 | 0.00 | 23 | 1019.6 |
| 20260506200401 | 79 | 249 | 5.2 | 8.7 | 0.00 | 0.00 | 0.00 | 23 | 1019.4 |
| 20260506195858 | 79 | 165 | 4.3 | 11.3 | 0.00 | 0.00 | 0.00 | 23 | 1019.6 |
| 20260506195355 | 78 | 145 | 2.6 | 6.1 | 0.00 | 0.00 | 0.00 | 24 | 1019.6 |
| 20260506194852 | 78 | 186 | 4.3 | 7.8 | 0.00 | 0.00 | 0.00 | 24 | 1019.6 |
| 20260506194349 | 78 | 225 | 3.5 | 6.1 | 0.00 | 0.00 | 0.00 | 24 | 1019.6 |
| 20260506193846 | 77 | 166 | 1.7 | 8.7 | 0.00 | 0.00 | 0.00 | 25 | 1019.6 |
| 20260506193343 | 76 | 130 | 5.2 | 8.7 | 0.00 | 0.00 | 0.00 | 24 | 1019.8 |
| 20260506192839 | 76 | 184 | 3.5 | 5.2 | 0.00 | 0.00 | 0.00 | 24 | 1019.8 |
| 20260506192336 | 77 | 182 | 3.5 | 8.7 | 0.00 | 0.00 | 0.00 | 25 | 1019.8 |
| 20260506191833 | 76 | 173 | 4.3 | 6.1 | 0.00 | 0.00 | 0.00 | 25 | 1020.2 |
| 20260506191329 | 76 | 233 | 4.3 | 7.8 | 0.00 | 0.00 | 0.00 | 25 | 1020.2 |
| 20260506190826 | 76 | 248 | 1.7 | 5.2 | 0.00 | 0.00 | 0.00 | 25 | 1020.2 |
| 20260506190323 | 75 | 180 | 4.3 | 10.4 | 0.00 | 0.00 | 0.00 | 25 | 1020.1 |
| 20260506185820 | 75 | 158 | 5.2 | 8.7 | 0.00 | 0.00 | 0.00 | 26 | 1020.2 |
| 20260506185317 | 75 | 226 | 5.2 | 8.7 | 0.00 | 0.00 | 0.00 | 25 | 1020.2 |
| 20260506184814 | 75 | 207 | 3.5 | 9.6 | 0.00 | 0.00 | 0.00 | 26 | 1020.4 |
| 20260506184311 | 74 | 227 | 5.2 | 10.4 | 0.00 | 0.00 | 0.00 | 26 | 1020.3 |
| 20260506183808 | 75 | 184 | 4.3 | 9.6 | 0.00 | 0.00 | 0.00 | 25 | 1020.4 |
| 20260506183303 | 75 | 175 | 7.8 | 8.7 | 0.00 | 0.00 | 0.00 | 26 | 1020.5 |
| 20260506182801 | 75 | 251 | 2.6 | 13.9 | 0.00 | 0.00 | 0.00 | 26 | 1020.6 |
| 20260506182257 | 74 | 220 | 2.6 | 7.8 | 0.00 | 0.00 | 0.00 | 26 | 1020.4 |
| 20260506181755 | 73 | 216 | 1.7 | 16.5 | 0.00 | 0.00 | 0.00 | 26 | 1020.6 |
| 20260506181253 | 73 | 244 | 7.8 | 8.7 | 0.00 | 0.00 | 0.00 | 27 | 1020.4 |
| 20260506180750 | 73 | 199 | 5.2 | 8.7 | 0.00 | 0.00 | 0.00 | 26 | 1020.5 |
| 20260506180246 | 73 | 238 | 6.1 | 11.3 | 0.00 | 0.00 | 0.00 | 27 | 1020.5 |
| 20260506175742 | 72 | 188 | 5.2 | 8.7 | 0.00 | 0.00 | 0.00 | 27 | 1020.6 |
| 20260506175239 | 72 | 232 | 5.2 | 11.3 | 0.00 | 0.00 | 0.00 | 27 | 1020.3 |
| 20260506174737 | 72 | 233 | 4.3 | 8.7 | 0.00 | 0.00 | 0.00 | 28 | 1020.5 |
| 20260506174233 | 71 | 163 | 6.1 | 13.9 | 0.00 | 0.00 | 0.00 | 28 | 1020.6 |
| 20260506173732 | 71 | 199 | 3.5 | 7.8 | 0.00 | 0.00 | 0.00 | 28 | 1020.3 |
| 20260506173228 | 71 | 225 | 4.3 | 11.3 | 0.00 | 0.00 | 0.00 | 28 | 1020.6 |
| 20260506172724 | 71 | 203 | 3.5 | 9.6 | 0.00 | 0.00 | 0.00 | 28 | 1020.4 |
| 20260506172220 | 70 | 248 | 8.7 | 10.4 | 0.00 | 0.00 | 0.00 | 29 | 1020.5 |
| 20260506171718 | 71 | 224 | 8.7 | 10.4 | 0.00 | 0.00 | 0.00 | 28 | 1020.3 |
| 20260506171216 | 70 | 245 | 1.7 | 11.3 | 0.00 | 0.00 | 0.00 | 28 | 1020.5 |
| 20260506170713 | 70 | 264 | 4.3 | 7.8 | 0.00 | 0.00 | 0.00 | 29 | 1020.3 |
| 20260506170210 | 70 | 225 | 7.8 | 9.6 | 0.00 | 0.00 | 0.00 | 29 | 1020.3 |
| 20260506165708 | 70 | 227 | 5.2 | 10.4 | 0.00 | 0.00 | 0.00 | 29 | 1020.3 |
| 20260506165205 | 69 | 259 | 8.7 | 10.4 | 0.00 | 0.00 | 0.00 | 30 | 1020.4 |
| 20260506164702 | 69 | 228 | 4.3 | 11.3 | 0.00 | 0.00 | 0.00 | 29 | 1020.2 |
| 20260506164159 | 68 | 239 | 4.3 | 7.0 | 0.00 | 0.00 | 0.00 | 31 | 1020.4 |
| 20260506163655 | 68 | 169 | 1.7 | 9.6 | 0.00 | 0.00 | 0.00 | 30 | 1020.3 |
| 20260506163150 | 68 | 185 | 5.2 | 7.8 | 0.00 | 0.00 | 0.00 | 31 | 1020.2 |
| 20260506162647 | 68 | 203 | 5.2 | 6.1 | 0.00 | 0.00 | 0.00 | 31 | 1020.5 |
| 20260506162144 | 68 | 166 | 5.2 | 9.6 | 0.00 | 0.00 | 0.00 | 31 | 1019.9 |
| 20260506161641 | 68 | 167 | 2.6 | 8.7 | 0.00 | 0.00 | 0.00 | 31 | 1020.3 |
| 20260506161138 | 67 | 241 | 7.0 | 7.8 | 0.00 | 0.00 | 0.00 | 32 | 1020.2 |
| 20260506160636 | 67 | 198 | 2.6 | 8.7 | 0.00 | 0.00 | 0.00 | 32 | 1020.1 |
| 20260506160132 | 67 | 195 | 1.7 | 6.1 | 0.00 | 0.00 | 0.00 | 32 | 1020.2 |
| 20260506155631 | 66 | 172 | 4.3 | 7.8 | 0.00 | 0.00 | 0.00 | 32 | 1020.1 |
| 20260506155128 | 65 | 122 | 2.6 | 6.1 | 0.00 | 0.00 | 0.00 | 34 | 1020.2 |
| 20260506153230 | 65 | 206 | 3.5 | 5.2 | 0.00 | 0.00 | 0.00 | 34 | 1020.2 |
| 20260506152727 | 65 | 129 | 5.2 | 7.0 | 0.00 | 0.00 | 0.00 | 34 | 1020.3 |
| 20260506152225 | 64 | 146 | 0.0 | 5.2 | 0.00 | 0.00 | 0.00 | 36 | 1020.1 |
| 20260506151724 | 64 | 255 | 1.7 | 5.2 | 0.00 | 0.00 | 0.00 | 36 | 1019.9 |
| 20260506151220 | 63 | 202 | 4.3 | 7.0 | 0.00 | 0.00 | 0.00 | 36 | 1019.9 |
| 20260506150716 | 63 | 183 | 2.6 | 6.1 | 0.00 | 0.00 | 0.00 | 36 | 1019.8 |
| 20260506150213 | 63 | 140 | 4.3 | 5.2 | 0.00 | 0.00 | 0.00 | 36 | 1020.1 |
| 20260506145710 | 62 | 192 | 2.6 | 6.1 | 0.00 | 0.00 | 0.00 | 37 | 1020.2 |
| 20260506145207 | 62 | 178 | 5.2 | 7.0 | 0.00 | 0.00 | 0.00 | 37 | 1019.9 |
| 20260506144705 | 62 | 239 | 1.7 | 5.2 | 0.00 | 0.00 | 0.00 | 37 | 1020.1 |
| 20260506144201 | 62 | 200 | 4.3 | 5.2 | 0.00 | 0.00 | 0.00 | 37 | 1020.1 |
| 20260506143659 | 61 | 173 | 2.6 | 6.1 | 0.00 | 0.00 | 0.00 | 38 | 1019.6 |
| 20260506143157 | 61 | 242 | 3.5 | 5.2 | 0.00 | 0.00 | 0.00 | 38 | 1020.1 |
| 20260506142655 | 61 | 252 | 1.7 | 3.5 | 0.00 | 0.00 | 0.00 | 39 | 1019.7 |
| 20260506142152 | 60 | 165 | 2.6 | 6.1 | 0.00 | 0.00 | 0.00 | 39 | 1019.7 |
| 20260506141650 | 60 | 187 | 1.7 | 2.6 | 0.00 | 0.00 | 0.00 | 40 | 1019.9 |
| 20260506141148 | 60 | 138 | 2.6 | 4.3 | 0.00 | 0.00 | 0.00 | 39 | 1019.6 |
| 20260506140645 | 61 | 151 | 2.6 | 4.3 | 0.00 | 0.00 | 0.00 | 39 | 1019.7 |
| 20260506140142 | 63 | 107 | 2.6 | 4.3 | 0.00 | 0.00 | 0.00 | 37 | 1019.5 |
| 20260506135639 | 62 | 114 | 0.0 | 3.5 | 0.00 | 0.00 | 0.00 | 38 | 1019.5 |
| 20260506135135 | 61 | 119 | 0.0 | 3.5 | 0.00 | 0.00 | 0.00 | 39 | 1019.5 |
| 20260506134632 | 60 | 112 | 2.6 | 3.5 | 0.00 | 0.00 | 0.00 | 39 | 1019.2 |
| 20260506134128 | 60 | 150 | 1.7 | 4.3 | 0.00 | 0.00 | 0.00 | 40 | 1019.4 |
| 20260506133625 | 59 | 131 | 1.7 | 2.6 | 0.00 | 0.00 | 0.00 | 41 | 1019.2 |
| 20260506133122 | 58 | 116 | 2.6 | 2.6 | 0.00 | 0.00 | 0.00 | 42 | 1019.2 |
| 20260506132620 | 56 | 109 | 1.7 | 1.7 | 0.00 | 0.00 | 0.00 | 46 | 1019.2 |
| 20260506132116 | 53 | 109 | 1.7 | 2.6 | 0.00 | 0.00 | 0.00 | 48 | 1019.2 |
| 20260506131614 | 52 | 112 | 1.7 | 1.7 | 0.00 | 0.00 | 0.00 | 51 | 1019.1 |
| 20260506131110 | 51 | 106 | 1.7 | 1.7 | 0.00 | 0.00 | 0.00 | 52 | 1019.2 |
| 20260506130607 | 50 | 90 | 0.9 | 2.6 | 0.00 | 0.00 | 0.00 | 52 | 1019.0 |
| 20260506130105 | 50 | 95 | 1.7 | 1.7 | 0.00 | 0.00 | 0.00 | 52 | 1019.0 |
| 20260506125603 | 50 | 121 | 1.7 | 2.6 | 0.00 | 0.00 | 0.00 | 53 | 1018.8 |
| 20260506125100 | 49 | 96 | 1.7 | 1.7 | 0.00 | 0.00 | 0.00 | 54 | 1018.7 |
| 20260506124558 | 49 | 117 | 0.9 | 0.9 | 0.00 | 0.00 | 0.00 | 53 | 1018.8 |
| 20260506124055 | 50 | 106 | 0.0 | 0.0 | 0.00 | 0.00 | 0.00 | 52 | 1018.6 |
| 20260506123553 | 50 | 90 | 0.0 | 0.0 | 0.00 | 0.00 | 0.00 | 50 | 1018.5 |
| 20260506123051 | 50 | 126 | 0.0 | 0.9 | 0.00 | 0.00 | 0.00 | 50 | 1018.5 |
| 20260506122547 | 51 | 101 | 1.7 | 1.7 | 0.00 | 0.00 | 0.00 | 50 | 1018.6 |
| 20260506122046 | 52 | 114 | 0.0 | 1.7 | 0.00 | 0.00 | 0.00 | 49 | 1018.5 |
| 20260506121543 | 52 | 126 | 0.9 | 2.6 | 0.00 | 0.00 | 0.00 | 49 | 1018.6 |
| 20260506121039 | 52 | 238 | 2.6 | 2.6 | 0.00 | 0.00 | 0.00 | 48 | 1018.4 |
| 20260506120537 | 53 | 270 | 0.9 | 1.7 | 0.00 | 0.00 | 0.00 | 48 | 1018.5 |
| 20260506120034 | 53 | 209 | 0.0 | 1.7 | 0.00 | 0.00 | 0.00 | 48 | 1018.5 |
| 20260506115532 | 53 | 270 | 1.7 | 2.6 | 0.00 | 0.00 | 0.00 | 48 | 1018.5 |
| 20260506115030 | 53 | 247 | 2.6 | 3.5 | 0.00 | 0.00 | 0.00 | 47 | 1018.2 |
| 20260506114527 | 53 | 270 | 1.7 | 2.6 | 0.00 | 0.00 | 0.00 | 48 | 1018.4 |
| 20260506114026 | 53 | 255 | 2.6 | 5.2 | 0.00 | 0.00 | 0.00 | 47 | 1018.4 |
| 20260506113523 | 53 | 293 | 2.6 | 2.6 | 0.00 | 0.00 | 0.00 | 47 | 1018.5 |
| 20260506113020 | 53 | 243 | 2.6 | 3.5 | 0.00 | 0.00 | 0.00 | 47 | 1018.5 |
| 20260506112517 | 53 | 252 | 0.0 | 4.3 | 0.00 | 0.00 | 0.00 | 47 | 1018.5 |
| 20260506112014 | 53 | 227 | 2.6 | 4.3 | 0.00 | 0.00 | 0.00 | 47 | 1018.5 |
| 20260506111512 | 53 | 232 | 2.6 | 4.3 | 0.00 | 0.00 | 0.00 | 47 | 1018.4 |
| 20260506111009 | 53 | 247 | 2.6 | 5.2 | 0.00 | 0.00 | 0.00 | 47 | 1018.3 |
| 20260506110507 | 53 | 278 | 0.9 | 5.2 | 0.00 | 0.00 | 0.00 | 47 | 1018.2 |
| 20260506110004 | 53 | 251 | 2.6 | 5.2 | 0.00 | 0.00 | 0.00 | 47 | 1018.1 |
| 20260506105459 | 53 | 246 | 2.6 | 4.3 | 0.00 | 0.00 | 0.00 | 47 | 1018.2 |
| 20260506104957 | 53 | 254 | 1.7 | 4.3 | 0.00 | 0.00 | 0.00 | 47 | 1018.1 |
| 20260506104455 | 53 | 240 | 2.6 | 4.3 | 0.00 | 0.00 | 0.00 | 47 | 1018.1 |
| 20260506103953 | 53 | 219 | 4.3 | 6.1 | 0.00 | 0.00 | 0.00 | 47 | 1018.0 |
| 20260506103450 | 53 | 240 | 2.6 | 3.5 | 0.00 | 0.00 | 0.00 | 47 | 1018.0 |
| 20260506102946 | 53 | 232 | 1.7 | 2.6 | 0.00 | 0.00 | 0.00 | 47 | 1018.2 |
| 20260506102445 | 53 | 249 | 0.0 | 2.6 | 0.00 | 0.00 | 0.00 | 47 | 1018.1 |
| 20260506101942 | 54 | 260 | 0.0 | 3.5 | 0.00 | 0.00 | 0.00 | 47 | 1018.0 |
| 20260506101438 | 54 | 265 | 1.7 | 2.6 | 0.00 | 0.00 | 0.00 | 46 | 1017.8 |
| 20260506100935 | 54 | 180 | 0.0 | 3.5 | 0.00 | 0.00 | 0.00 | 46 | 1017.8 |
| 20260506100434 | 54 | 264 | 1.7 | 4.3 | 0.00 | 0.00 | 0.00 | 46 | 1018.0 |
| 20260506095931 | 54 | 232 | 1.7 | 4.3 | 0.00 | 0.00 | 0.00 | 47 | 1017.8 |
| 20260506095430 | 54 | 231 | 1.7 | 4.3 | 0.00 | 0.00 | 0.00 | 46 | 1017.8 |
| 20260506094925 | 54 | 221 | 0.0 | 3.5 | 0.00 | 0.00 | 0.00 | 46 | 1017.7 |
| 20260506094424 | 54 | 201 | 2.6 | 2.6 | 0.00 | 0.00 | 0.00 | 46 | 1017.7 |
| 20260506093921 | 54 | 221 | 1.7 | 2.6 | 0.00 | 0.00 | 0.00 | 46 | 1018.0 |
| 20260506093419 | 54 | 234 | 2.6 | 3.5 | 0.00 | 0.00 | 0.00 | 46 | 1017.5 |
| 20260506092917 | 55 | 214 | 3.5 | 3.5 | 0.00 | 0.00 | 0.00 | 46 | 1017.7 |
| 20260506092415 | 55 | 214 | 1.7 | 3.5 | 0.00 | 0.00 | 0.00 | 45 | 1017.7 |
| 20260506091911 | 55 | 247 | 1.7 | 4.3 | 0.00 | 0.00 | 0.00 | 45 | 1017.5 |
| 20260506091409 | 55 | 205 | 2.6 | 4.3 | 0.00 | 0.00 | 0.00 | 45 | 1017.7 |
| 20260506090906 | 55 | 229 | 1.7 | 4.3 | 0.00 | 0.00 | 0.00 | 45 | 1017.5 |
| 20260506090404 | 55 | 239 | 1.7 | 4.3 | 0.00 | 0.00 | 0.00 | 45 | 1017.5 |
| 20260506085900 | 55 | 246 | 5.2 | 5.2 | 0.00 | 0.00 | 0.00 | 45 | 1017.6 |
| 20260506085357 | 55 | 260 | 2.6 | 3.5 | 0.00 | 0.00 | 0.00 | 45 | 1017.3 |
| 20260506084853 | 55 | 248 | 3.5 | 6.1 | 0.00 | 0.00 | 0.00 | 45 | 1017.4 |
| 20260506084350 | 55 | 212 | 0.9 | 4.3 | 0.00 | 0.00 | 0.00 | 45 | 1017.6 |
| 20260506083846 | 55 | 265 | 1.7 | 3.5 | 0.00 | 0.00 | 0.00 | 45 | 1017.7 |
| 20260506083344 | 55 | 251 | 2.6 | 4.3 | 0.00 | 0.00 | 0.00 | 45 | 1017.7 |
| 20260506082841 | 55 | 239 | 1.7 | 5.2 | 0.00 | 0.00 | 0.00 | 45 | 1017.6 |
| 20260506082338 | 54 | 220 | 1.7 | 4.3 | 0.00 | 0.00 | 0.00 | 45 | 1017.4 |
| 20260506081833 | 54 | 270 | 1.7 | 2.6 | 0.00 | 0.00 | 0.00 | 45 | 1017.6 |
| 20260506081331 | 53 | 233 | 2.6 | 2.6 | 0.00 | 0.00 | 0.00 | 45 | 1017.5 |
| 20260506080829 | 53 | 198 | 0.0 | 2.6 | 0.00 | 0.00 | 0.00 | 45 | 1017.6 |
| 20260506080325 | 53 | 254 | 0.9 | 1.7 | 0.00 | 0.00 | 0.00 | 44 | 1017.6 |
| 20260506073310 | 54 | 203 | 0.0 | 1.7 | 0.00 | 0.00 | 0.00 | 43 | 1017.6 |
| 20260506072806 | 54 | 203 | 0.0 | 2.6 | 0.00 | 0.00 | 0.00 | 43 | 1017.4 |
| 20260506072305 | 54 | 270 | 0.0 | 1.7 | 0.00 | 0.00 | 0.00 | 42 | 1017.6 |
| 20260506071801 | 54 | 264 | 0.9 | 1.7 | 0.00 | 0.00 | 0.00 | 42 | 1017.4 |
| 20260506071259 | 54 | 254 | 0.9 | 2.6 | 0.00 | 0.00 | 0.00 | 42 | 1017.5 |
| 20260506070756 | 54 | 236 | 1.7 | 2.6 | 0.00 | 0.00 | 0.00 | 42 | 1017.3 |
| 20260506070253 | 55 | 249 | 0.0 | 2.6 | 0.00 | 0.00 | 0.00 | 40 | 1017.5 |
| 20260506062230 | 55 | 255 | 0.0 | 1.7 | 0.00 | 0.00 | 0.00 | 38 | 1017.2 |
| 20260506061725 | 54 | 261 | 0.0 | 1.7 | 0.00 | 0.00 | 0.00 | 38 | 1017.3 |
| 20260506061223 | 54 | 264 | 0.9 | 0.9 | 0.00 | 0.00 | 0.00 | 38 | 1017.1 |
| 20260506060722 | 54 | 195 | 0.0 | 0.0 | 0.00 | 0.00 | 0.00 | 38 | 1017.2 |
| 20260506060218 | 54 | 291 | 0.0 | 1.7 | 0.00 | 0.00 | 0.00 | 38 | 1017.1 |